[[{"header":{"parameterUnit":"m.s-1","parameterCategory":1,"la1":30.2991,"la2":30.254,"lo1":-89.0895,"lo2":-89.0444,"dy":0.0017,"dx":0.0017,"nx":28,"ny":28,"refTime":"2025-01-18T03:00:00:Z","depth":0,"parameterNumber":2,"parameterNumberName":"U-component_of_WINDS"},"data":[0,0,0,0,0,0,0,0,0,0,0,0,0,0,0,0,0,0,0,0,0,0,0,0,0,0,0,0,0,0,0,0,0,0,0,0,0,0,0,0,0,0,0,0,0,0,0,0,0,0,0,0,0,0,0,0,0,0,4.2422,4.2422,0,4.2459,4.2459,4.2459,4.2415,4.2413,4.2412,4.241,4.2446,4.2448,4.2451,0,0,0,0,0,0,0,0,0,0,0,0,0,4.2313,4.2315,4.2422,4.2422,4.2423,4.2459,4.2459,4.246,4.2415,4.2413,4.2411,4.2409,4.2445,4.2448,4.2451,0,0,0,0,0,0,0,0,0,0,0,0,0,4.2356,4.2316,4.2422,4.2405,4.2404,4.2458,4.2459,4.246,4.2416,4.2413,4.2411,4.2408,4.2444,4.2448,4.2451,4.2524,0,0,4.2463,4.2464,0,0,0,0,0,0,0,0,4.2353,4.236,4.2407,4.2406,4.2405,4.243,4.2434,4.2481,4.2416,4.2411,4.241,4.2407,4.2442,4.2446,4.2458,4.2525,4.2527,4.2463,4.2465,4.2467,4.2468,0,0,0,0,0,0,0,4.235,4.2358,4.2436,4.2408,4.2407,4.2395,4.2399,4.2442,4.244,4.2411,4.2408,4.2413,4.2441,4.2455,4.2459,4.2527,4.2463,4.2466,4.2469,4.247,4.2658,4.266,0,0,0,0,0,0,4.235,4.2356,4.2435,4.2437,4.2373,4.2399,4.2403,4.2424,4.2439,4.2439,4.2415,4.2411,4.245,4.2455,4.246,4.2547,4.2467,4.247,4.2473,4.2655,4.2658,4.2661,0,0,0,0,0,0,4.2347,4.2357,4.2434,4.2396,4.2405,4.2404,4.2428,4.2426,4.244,4.2443,4.2442,4.243,4.2448,4.2455,4.2509,4.2547,4.2472,4.2476,4.2652,4.2656,4.266,4.272,0,0,0,0,0,0,4.2344,4.2357,4.2384,4.2397,4.2407,4.2482,4.243,4.2429,4.2446,4.2441,4.2456,4.2456,4.2447,4.2503,4.2512,4.2551,4.2478,4.2648,4.2653,4.2658,4.2715,4.2726,4.2735,0,0,0,0,0,4.2341,4.2399,4.2386,4.2395,4.2441,4.2484,4.249,4.2479,4.245,4.2477,4.248,4.2455,4.2542,4.2509,4.2519,4.2559,4.2646,4.2652,4.2658,4.271,4.2723,4.2735,0,0,0,0,0,0,4.2389,4.24,4.2385,4.2449,4.2467,4.2477,4.2511,4.2493,4.2518,4.2512,4.2497,4.2501,4.2559,4.2564,4.2528,4.2631,4.2589,4.2597,4.2625,4.2638,4.2648,4.2645,4.2482,0,0,0,0,0,4.2408,4.2442,4.2449,4.2505,4.2515,4.2512,4.253,4.252,4.2537,4.2544,4.2549,4.2566,4.2597,4.2618,4.2646,4.2715,4.2718,4.2748,4.2758,4.2767,4.2774,4.2812,4.2826,4.2681,4.2681,4.2681,0,0,4.2445,4.2455,4.2478,4.2515,4.2527,4.2563,4.2518,4.2557,4.2584,4.2549,4.2601,4.2606,4.2624,4.2686,4.2714,4.2693,4.2815,4.2775,4.2781,4.2784,4.282,4.2834,4.2846,4.2686,4.2685,4.2684,0,0,4.2532,4.2544,4.2592,4.2605,4.2625,4.2623,4.2635,4.2648,4.2651,4.2703,4.2678,4.2709,4.2763,4.2777,4.2791,4.2887,4.2866,4.2897,4.295,4.2988,4.2999,4.3009,4.3044,4.3056,4.2904,4.2904,4.2904,0,4.2577,4.263,4.2619,4.2661,4.2678,4.265,4.2699,4.2713,4.274,4.2753,4.2729,4.2797,4.2807,4.2873,4.2897,4.2909,4.2922,4.2894,4.2998,4.3008,4.3017,4.305,4.3063,4.2908,4.2907,4.2907,4.2907,0,4.2684,4.2722,4.2759,4.2788,4.2809,4.2855,4.285,4.2873,4.2862,4.2863,4.2917,4.2929,4.296,4.2975,4.2963,4.304,4.3026,4.3001,4.2958,4.3035,4.3066,4.3078,4.2913,4.2912,4.2911,4.291,0,0,4.2801,4.2825,4.2838,4.2852,4.2872,4.2901,4.2946,4.2977,4.2998,4.3019,4.3056,4.3103,4.3081,4.3097,4.3087,4.312,4.3196,4.3091,4.3091,4.311,4.3282,4.3301,4.3315,4.3183,4.3185,4.3187,4.328,0,4.2889,4.2967,4.2959,4.3033,4.3069,4.3043,4.3082,4.3099,4.3102,4.3132,4.3134,4.3168,4.3136,4.3146,4.3177,4.318,4.3231,4.3174,4.3217,4.3219,4.3214,4.3331,4.3351,4.3438,4.3292,4.3294,4.3296,0,4.3002,4.3028,4.3106,4.3123,4.3137,4.3173,4.3202,4.3231,4.325,4.325,4.3269,4.3255,4.33,4.3257,4.332,4.3281,4.3299,4.3304,4.3307,4.331,4.3262,4.3338,4.3466,4.3479,4.3314,4.3313,4.3312,0,4.308,4.3135,4.3189,4.3201,4.3222,4.3248,4.3257,4.3274,4.3294,4.332,4.3333,4.3363,4.3379,4.3403,4.3397,4.3367,4.3462,4.3418,4.3463,4.3463,4.3483,4.3482,4.3616,4.3495,4.3495,4.3494,4.3494,0,4.3179,4.3228,4.3225,4.3258,4.3313,4.3303,4.3357,4.3364,4.3379,4.3414,4.3393,4.3426,4.3416,4.3449,4.3444,4.3497,4.3505,4.3506,4.3504,4.3508,4.3508,4.3518,4.3512,4.3498,4.3497,4.3496,4.3496,0,4.3276,4.3275,4.3333,4.3349,4.3354,4.3393,4.3407,4.3438,4.344,4.3484,4.3493,4.3496,4.3533,4.353,4.3571,4.3568,4.3634,4.3625,4.3628,4.3626,4.3671,4.3667,4.3816,4.3836,4.3702,4.3704,4.3705,0,4.3339,4.3376,4.3396,4.3419,4.3431,4.3466,4.3487,4.348,4.3502,4.3528,4.3557,4.3592,4.362,4.3681,4.3686,4.3718,4.371,4.376,4.3714,4.3717,4.3711,4.3709,4.3713,4.3769,4.377,4.3772,4.3773,0,4.3451,4.345,4.3481,4.3513,4.3539,4.3564,4.3586,4.3605,4.36,4.3627,4.3665,4.3687,4.373,4.3766,4.3797,4.3807,4.3789,4.3787,4.3799,4.3803,4.3803,4.3804,4.3652,4.3784,4.3782,4.3782,4.3781,4.3781,4.3533,4.3565,4.3586,4.3622,4.3638,4.366,4.3691,4.3697,4.373,4.3765,4.3759,4.3802,4.3821,4.3861,4.3874,4.3908,4.389,4.3907,4.3912,4.3916,4.3922,4.3799,4.3914,4.3913,4.3913,4.3913,4.3912,0,4.3645,4.3657,4.369,4.3723,4.3752,4.3734,4.3758,4.3784,4.3822,4.3842,4.3871,4.3916,4.3951,4.396,4.3994,4.4019,4.4012,4.4028,4.4026,4.4029,4.3936,4.3922,4.4034,4.4034,4.4034,4.4033,4.4033,4.4033,4.3706,4.3761,4.3762,4.3825,4.3837,4.388,4.3895,4.3916,4.3932,4.3983,4.4013,4.4019,4.4035,4.407,4.4102,4.4103,4.4117,4.4136,4.4135,4.4047,4.4035,4.4024,4.4011,4.4139,4.4139,4.4225,4.4226,4.4227]},{"header":{"parameterUnit":"m.s-1","parameterCategory":1,"la1":30.2991,"la2":30.254,"lo1":-89.0895,"lo2":-89.0444,"dy":0.0017,"dx":0.0017,"nx":28,"ny":28,"refTime":"2025-01-18T03:00:00:Z","depth":0,"parameterNumber":3,"parameterNumberName":"V-component_of_WINDS"},"data":[0,0,0,0,0,0,0,0,0,0,0,0,0,0,0,0,0,0,0,0,0,0,0,0,0,0,0,0,0,0,0,0,0,0,0,0,0,0,0,0,0,0,0,0,0,0,0,0,0,0,0,0,0,0,0,0,0,0,-7.0326,-7.0327,0,-7.0419,-7.042,-7.0421,-7.0379,-7.0377,-7.0375,-7.0372,-7.0462,-7.0467,-7.0471,0,0,0,0,0,0,0,0,0,0,0,0,0,-7.011,-7.0114,-7.0326,-7.0327,-7.0329,-7.0419,-7.042,-7.0421,-7.0379,-7.0377,-7.0374,-7.0371,-7.0461,-7.0466,-7.0472,0,0,0,0,0,0,0,0,0,0,0,0,0,-7.0203,-7.0116,-7.0326,-7.0319,-7.0319,-7.0419,-7.042,-7.0422,-7.038,-7.0377,-7.0373,-7.037,-7.0459,-7.0466,-7.0472,-7.0583,0,0,-7.0493,-7.0496,0,0,0,0,0,0,0,0,-7.0198,-7.0211,-7.0319,-7.0319,-7.032,-7.0384,-7.0377,-7.0476,-7.0381,-7.0357,-7.0372,-7.0368,-7.0439,-7.0447,-7.0472,-7.0587,-7.0591,-7.0494,-7.0498,-7.0501,-7.0503,0,0,0,0,0,0,0,-7.0192,-7.0207,-7.0363,-7.032,-7.0321,-7.031,-7.0319,-7.0395,-7.0416,-7.0359,-7.0356,-7.0368,-7.0438,-7.0465,-7.0473,-7.0592,-7.0493,-7.05,-7.0504,-7.0506,-7.0805,-7.0809,0,0,0,0,0,0,-7.0186,-7.0202,-7.036,-7.0366,-7.025,-7.0317,-7.0327,-7.0367,-7.0415,-7.0419,-7.037,-7.0365,-7.0455,-7.0466,-7.0476,-7.0611,-7.0501,-7.0507,-7.0511,-7.0801,-7.0806,-7.081,0,0,0,0,0,0,-7.0181,-7.02,-7.0356,-7.0283,-7.0302,-7.0324,-7.0369,-7.0371,-7.0397,-7.0424,-7.0427,-7.0394,-7.0453,-7.0467,-7.0558,-7.0613,-7.051,-7.0516,-7.0797,-7.0803,-7.0808,-7.0879,0,0,0,0,0,0,-7.0175,-7.0199,-7.0242,-7.0285,-7.0306,-7.0437,-7.0372,-7.0375,-7.041,-7.0404,-7.0447,-7.0451,-7.0451,-7.0548,-7.0564,-7.062,-7.0522,-7.0792,-7.0799,-7.0806,-7.0871,-7.0886,-7.0899,0,0,0,0,0,-7.0168,-7.0257,-7.0244,-7.0264,-7.0361,-7.044,-7.0452,-7.0453,-7.0414,-7.0457,-7.0475,-7.045,-7.0604,-7.0557,-7.0576,-7.0635,-7.0788,-7.0797,-7.0806,-7.0865,-7.0883,-7.0898,0,0,0,0,0,0,-7.0217,-7.0262,-7.0249,-7.0354,-7.0394,-7.0433,-7.0487,-7.0471,-7.0521,-7.0513,-7.051,-7.052,-7.0615,-7.0633,-7.058,-7.0745,-7.069,-7.0703,-7.0729,-7.0747,-7.076,-7.0753,-7.0527,0,0,0,0,0,-7.0241,-7.0304,-7.0338,-7.0428,-7.0449,-7.0465,-7.0499,-7.0497,-7.0537,-7.0553,-7.0576,-7.0616,-7.0673,-7.0711,-7.0765,-7.0874,-7.0883,-7.0924,-7.0937,-7.0949,-7.096,-7.102,-7.1039,-7.0839,-7.0839,-7.0838,0,0,-7.029,-7.0322,-7.0361,-7.0439,-7.0469,-7.0533,-7.0479,-7.0548,-7.0595,-7.0563,-7.0651,-7.067,-7.0713,-7.0814,-7.0859,-7.0833,-7.1017,-7.096,-7.0968,-7.0973,-7.1031,-7.105,-7.1067,-7.0845,-7.0843,-7.0843,0,0,-7.0411,-7.0442,-7.0521,-7.0553,-7.0601,-7.0611,-7.063,-7.0673,-7.0685,-7.0773,-7.0751,-7.0806,-7.0905,-7.0937,-7.0967,-7.1104,-7.1083,-7.1121,-7.1192,-7.1251,-7.1267,-7.1281,-7.133,-7.1348,-7.1132,-7.1132,-7.1132,0,-7.0465,-7.0562,-7.0562,-7.0635,-7.067,-7.0646,-7.0726,-7.0757,-7.0819,-7.0844,-7.0813,-7.0939,-7.0966,-7.1075,-7.1108,-7.1133,-7.1154,-7.1116,-7.1265,-7.1279,-7.1292,-7.1339,-7.1358,-7.1137,-7.1136,-7.1136,-7.1135,0,-7.0626,-7.0694,-7.0751,-7.0815,-7.0857,-7.0932,-7.0944,-7.0986,-7.098,-7.0994,-7.1085,-7.1117,-7.1178,-7.1204,-7.1198,-7.1313,-7.1295,-7.1265,-7.121,-7.1315,-7.136,-7.1378,-7.1143,-7.1141,-7.114,-7.1139,0,0,-7.078,-7.0845,-7.0867,-7.0896,-7.0948,-7.1,-7.1075,-7.1137,-7.1173,-7.1217,-7.128,-7.1366,-7.1339,-7.1372,-7.137,-7.1422,-7.1529,-7.1385,-7.1386,-7.1411,-7.1659,-7.1682,-7.1702,-7.1516,-7.1519,-7.1522,-7.1656,0,-7.0906,-7.1039,-7.1043,-7.1164,-7.1227,-7.1206,-7.1271,-7.131,-7.1325,-7.138,-7.1395,-7.1457,-7.1416,-7.1437,-7.1487,-7.1506,-7.1579,-7.1496,-7.1573,-7.1576,-7.1564,-7.1725,-7.1749,-7.1873,-7.1673,-7.1676,-7.1678,0,-7.107,-7.1123,-7.1251,-7.1296,-7.1323,-7.1381,-7.144,-7.1492,-7.1536,-7.1543,-7.1582,-7.1573,-7.1648,-7.1592,-7.1696,-7.164,-7.1672,-7.1686,-7.169,-7.1697,-7.1633,-7.1737,-7.1913,-7.1932,-7.1705,-7.1703,-7.1701,0,-7.1171,-7.1273,-7.1363,-7.1389,-7.1444,-7.1486,-7.151,-7.1551,-7.1589,-7.1639,-7.1664,-7.1722,-7.1753,-7.1798,-7.1804,-7.1762,-7.191,-7.1853,-7.1917,-7.1917,-7.1949,-7.1947,-7.2133,-7.1969,-7.1969,-7.1969,-7.1968,0,-7.1311,-7.139,-7.141,-7.1465,-7.1554,-7.1558,-7.1645,-7.1666,-7.1703,-7.1761,-7.1746,-7.1801,-7.1806,-7.1863,-7.1868,-7.1954,-7.1968,-7.1976,-7.1976,-7.1978,-7.1977,-7.1998,-7.199,-7.1974,-7.1973,-7.1972,-7.1971,0,-7.1438,-7.1454,-7.1552,-7.1597,-7.161,-7.1673,-7.1711,-7.1764,-7.1779,-7.1853,-7.1871,-7.1893,-7.196,-7.1971,-7.2047,-7.2051,-7.2155,-7.2146,-7.2141,-7.2139,-7.2204,-7.2198,-7.241,-7.2439,-7.2257,-7.2258,-7.226,0,-7.1526,-7.1587,-7.164,-7.168,-7.1707,-7.177,-7.181,-7.1816,-7.1857,-7.1913,-7.196,-7.2025,-7.2077,-7.2184,-7.2206,-7.2265,-7.2258,-7.2329,-7.2267,-7.2267,-7.226,-7.2257,-7.2263,-7.234,-7.2342,-7.2344,-7.2345,0,-7.1682,-7.1688,-7.1746,-7.1809,-7.1857,-7.1905,-7.1951,-7.1983,-7.1996,-7.2043,-7.2112,-7.2153,-7.2233,-7.2298,-7.2358,-7.2381,-7.2366,-7.2365,-7.2383,-7.2385,-7.238,-7.2384,-7.2173,-7.236,-7.2358,-7.2357,-7.2356,-7.2356,-7.1793,-7.1847,-7.1894,-7.1959,-7.1995,-7.2039,-7.2092,-7.2114,-7.2172,-7.224,-7.224,-7.2315,-7.2359,-7.2437,-7.2465,-7.2524,-7.2501,-7.2527,-7.2534,-7.254,-7.2547,-7.2371,-7.2535,-7.2534,-7.2534,-7.2533,-7.2533,0,-7.1949,-7.1978,-7.2039,-7.2105,-7.2157,-7.214,-7.2191,-7.2235,-7.2303,-7.2345,-7.2398,-7.2478,-7.2541,-7.257,-7.2632,-7.2674,-7.2668,-7.269,-7.2687,-7.2693,-7.2564,-7.2542,-7.2694,-7.2694,-7.2694,-7.2694,-7.2693,-7.2693,-7.2036,-7.2127,-7.2139,-7.2248,-7.2276,-7.2352,-7.2383,-7.2423,-7.2457,-7.2548,-7.2602,-7.2621,-7.2658,-7.2723,-7.278,-7.2787,-7.2811,-7.2836,-7.2839,-7.2718,-7.2702,-7.2686,-7.2666,-7.2841,-7.2841,-7.2964,-7.2965,-7.2966]}]]